[[{"header":{"parameterUnit":"m.s-1","parameterCategory":1,"la1":30.2991,"la2":30.254,"lo1":-89.0895,"lo2":-89.0444,"dy":0.0017,"dx":0.0017,"nx":28,"ny":28,"refTime":"2023-08-28T21:00:00:Z","depth":0,"parameterNumber":2,"parameterNumberName":"U-component_of_WINDS"},"data":[0,0,0,0,0,0,0,0,0,0,0,0,0,0,0,0,0,0,0,0,0,0,0,0,0,0,0,0,0,0,0,0,0,0,0,0,0,0,0,0,0,0,0,0,0,0,0,0,0,0,0,0,0,0,0,0,0,0,-2.576,-2.5761,0,-2.5859,-2.586,-2.5861,-2.5831,-2.5829,-2.5827,-2.5825,-2.5933,-2.5937,-2.5942,0,0,0,0,0,0,0,0,0,0,0,0,0,-2.5552,-2.5556,-2.576,-2.5761,-2.5762,-2.5859,-2.586,-2.5861,-2.5831,-2.5829,-2.5826,-2.5824,-2.5931,-2.5937,-2.5943,0,0,0,0,0,0,0,0,0,0,0,0,0,-2.5646,-2.5557,-2.576,-2.5759,-2.576,-2.5858,-2.586,-2.5862,-2.5832,-2.5828,-2.5825,-2.5822,-2.5929,-2.5936,-2.5943,-2.6051,0,0,-2.5965,-2.5969,0,0,0,0,0,0,0,0,-2.5641,-2.5654,-2.5758,-2.5759,-2.576,-2.5829,-2.5826,-2.5925,-2.5832,-2.5805,-2.5824,-2.5821,-2.5901,-2.5911,-2.5936,-2.6056,-2.6061,-2.5966,-2.5971,-2.5974,-2.5976,0,0,0,0,0,0,0,-2.5634,-2.5649,-2.5799,-2.5759,-2.5761,-2.5756,-2.5766,-2.5845,-2.587,-2.5807,-2.5805,-2.5816,-2.5901,-2.5929,-2.5939,-2.6062,-2.5966,-2.5972,-2.5977,-2.598,-2.6279,-2.6282,0,0,0,0,0,0,-2.5626,-2.5644,-2.5796,-2.5802,-2.5691,-2.5762,-2.5773,-2.581,-2.5868,-2.5874,-2.5819,-2.5815,-2.5918,-2.593,-2.5942,-2.6074,-2.5974,-2.598,-2.5985,-2.6275,-2.628,-2.6284,0,0,0,0,0,0,-2.5622,-2.564,-2.5792,-2.5723,-2.5742,-2.5769,-2.5811,-2.5814,-2.5842,-2.5878,-2.5883,-2.5843,-2.5916,-2.5932,-2.6024,-2.6077,-2.5984,-2.599,-2.6271,-2.6277,-2.6282,-2.6337,0,0,0,0,0,0,-2.5616,-2.5638,-2.5678,-2.5724,-2.5745,-2.587,-2.5814,-2.5818,-2.5853,-2.5849,-2.5901,-2.5907,-2.5915,-2.6014,-2.6032,-2.6086,-2.5996,-2.6267,-2.6274,-2.628,-2.6331,-2.6344,-2.6355,0,0,0,0,0,-2.5608,-2.569,-2.568,-2.5698,-2.5795,-2.5873,-2.5886,-2.5892,-2.5858,-2.5899,-2.5923,-2.5905,-2.6068,-2.6023,-2.6043,-2.61,-2.6263,-2.6272,-2.6279,-2.6326,-2.6341,-2.6355,0,0,0,0,0,0,-2.5652,-2.5696,-2.5685,-2.5784,-2.5825,-2.5868,-2.592,-2.5908,-2.5961,-2.5955,-2.5962,-2.5974,-2.6069,-2.6094,-2.6043,-2.6209,-2.6161,-2.6174,-2.6189,-2.6205,-2.6217,-2.621,-2.6002,0,0,0,0,0,-2.5673,-2.5731,-2.5767,-2.5851,-2.5872,-2.5893,-2.5927,-2.5928,-2.5972,-2.5989,-2.602,-2.6065,-2.6126,-2.6167,-2.6225,-2.6334,-2.6347,-2.6383,-2.6396,-2.6405,-2.6417,-2.6479,-2.6496,-2.631,-2.631,-2.631,0,0,-2.5717,-2.5748,-2.5785,-2.5861,-2.5892,-2.5955,-2.5908,-2.5975,-2.6022,-2.6,-2.6089,-2.6113,-2.6164,-2.6266,-2.6312,-2.6289,-2.6471,-2.6416,-2.6423,-2.6429,-2.6489,-2.6506,-2.6522,-2.6316,-2.6315,-2.6314,0,0,-2.583,-2.5858,-2.5932,-2.5965,-2.6013,-2.6026,-2.6044,-2.6089,-2.6104,-2.6193,-2.6178,-2.6236,-2.6341,-2.6378,-2.6411,-2.654,-2.6527,-2.6559,-2.6623,-2.6683,-2.6698,-2.6711,-2.6759,-2.6776,-2.657,-2.657,-2.657,0,-2.5879,-2.597,-2.5972,-2.6041,-2.6076,-2.6057,-2.6134,-2.6166,-2.6232,-2.6258,-2.6231,-2.6363,-2.6396,-2.6508,-2.6539,-2.6566,-2.6589,-2.6553,-2.6695,-2.6708,-2.6721,-2.6767,-2.6784,-2.6574,-2.6573,-2.6573,-2.6572,0,-2.603,-2.6093,-2.6148,-2.621,-2.6251,-2.6323,-2.6339,-2.6381,-2.6378,-2.6395,-2.6488,-2.6527,-2.6594,-2.662,-2.6619,-2.6732,-2.6717,-2.6692,-2.6645,-2.6742,-2.6785,-2.6803,-2.6579,-2.6577,-2.6576,-2.6575,0,0,-2.6173,-2.6235,-2.6255,-2.6284,-2.6336,-2.6387,-2.646,-2.6523,-2.656,-2.6607,-2.667,-2.676,-2.6738,-2.6776,-2.6779,-2.6832,-2.6934,-2.6801,-2.6803,-2.6826,-2.7064,-2.7084,-2.7104,-2.6925,-2.6929,-2.6931,-2.7061,0,-2.6291,-2.6416,-2.6421,-2.6537,-2.6597,-2.6581,-2.6645,-2.6686,-2.6704,-2.676,-2.6781,-2.6846,-2.6811,-2.6833,-2.6885,-2.691,-2.6982,-2.6901,-2.6987,-2.699,-2.6976,-2.7126,-2.7146,-2.7266,-2.7078,-2.708,-2.7083,0,-2.6446,-2.6495,-2.6617,-2.6662,-2.6687,-2.6744,-2.6804,-2.6857,-2.6904,-2.6914,-2.6956,-2.6952,-2.703,-2.6979,-2.7088,-2.7033,-2.7068,-2.7087,-2.7092,-2.7101,-2.7043,-2.7142,-2.7305,-2.7323,-2.7109,-2.7107,-2.7105,0,-2.654,-2.6638,-2.6723,-2.6748,-2.6803,-2.6844,-2.6869,-2.6912,-2.6951,-2.7004,-2.7029,-2.7092,-2.7126,-2.7176,-2.719,-2.7151,-2.73,-2.725,-2.7314,-2.7313,-2.7347,-2.7345,-2.752,-2.7367,-2.7367,-2.7366,-2.7366,0,-2.6673,-2.6748,-2.6767,-2.6819,-2.6905,-2.691,-2.6995,-2.7018,-2.7057,-2.7116,-2.7106,-2.7163,-2.7177,-2.7238,-2.725,-2.734,-2.7355,-2.7368,-2.737,-2.7369,-2.7368,-2.7394,-2.7387,-2.7371,-2.737,-2.7369,-2.7368,0,-2.6793,-2.6808,-2.6901,-2.6944,-2.6957,-2.7018,-2.7057,-2.7109,-2.7126,-2.7202,-2.722,-2.7248,-2.7318,-2.7337,-2.7422,-2.743,-2.7537,-2.7531,-2.7521,-2.7521,-2.7585,-2.7579,-2.7784,-2.7812,-2.7639,-2.7641,-2.7642,0,-2.6877,-2.6935,-2.6984,-2.7022,-2.7049,-2.711,-2.7149,-2.7157,-2.7199,-2.7258,-2.7304,-2.7373,-2.7428,-2.7542,-2.7572,-2.7638,-2.7634,-2.7702,-2.7644,-2.7643,-2.7638,-2.7635,-2.7642,-2.7713,-2.7715,-2.7716,-2.7718,0,-2.7026,-2.7031,-2.7086,-2.7145,-2.7191,-2.7238,-2.7283,-2.7316,-2.7331,-2.7379,-2.7449,-2.7492,-2.7579,-2.7648,-2.7715,-2.7744,-2.7735,-2.7735,-2.7754,-2.7754,-2.7747,-2.7754,-2.7552,-2.7731,-2.7729,-2.7728,-2.7728,-2.7727,-2.7132,-2.7183,-2.7226,-2.7289,-2.7324,-2.7366,-2.7418,-2.7441,-2.7499,-2.7569,-2.7571,-2.7649,-2.7697,-2.7785,-2.7818,-2.7881,-2.7861,-2.7888,-2.7895,-2.7902,-2.7908,-2.7735,-2.7893,-2.7893,-2.7892,-2.7892,-2.7892,0,-2.7282,-2.7309,-2.7366,-2.7429,-2.7479,-2.7463,-2.7513,-2.7557,-2.7625,-2.7669,-2.7724,-2.7807,-2.7874,-2.791,-2.7978,-2.8022,-2.802,-2.804,-2.8038,-2.8045,-2.7921,-2.7899,-2.8041,-2.8041,-2.8041,-2.8041,-2.8041,-2.8041,-2.7366,-2.7452,-2.7462,-2.7567,-2.7594,-2.7668,-2.7698,-2.7739,-2.7774,-2.7866,-2.7922,-2.7943,-2.7986,-2.8057,-2.812,-2.8129,-2.8156,-2.8178,-2.8186,-2.8069,-2.8054,-2.8039,-2.8019,-2.8184,-2.8184,-2.8305,-2.8306,-2.8307]},{"header":{"parameterUnit":"m.s-1","parameterCategory":1,"la1":30.2991,"la2":30.254,"lo1":-89.0895,"lo2":-89.0444,"dy":0.0017,"dx":0.0017,"nx":28,"ny":28,"refTime":"2023-08-28T21:00:00:Z","depth":0,"parameterNumber":3,"parameterNumberName":"V-component_of_WINDS"},"data":[0,0,0,0,0,0,0,0,0,0,0,0,0,0,0,0,0,0,0,0,0,0,0,0,0,0,0,0,0,0,0,0,0,0,0,0,0,0,0,0,0,0,0,0,0,0,0,0,0,0,0,0,0,0,0,0,0,0,-2.0303,-2.0303,0,-2.0296,-2.0296,-2.0296,-2.0247,-2.0246,-2.0245,-2.0244,-2.0237,-2.0238,-2.0238,0,0,0,0,0,0,0,0,0,0,0,0,0,-2.0273,-2.0274,-2.0303,-2.0303,-2.0303,-2.0296,-2.0296,-2.0296,-2.0248,-2.0246,-2.0245,-2.0243,-2.0236,-2.0237,-2.0239,0,0,0,0,0,0,0,0,0,0,0,0,0,-2.0278,-2.0274,-2.0303,-2.0278,-2.0275,-2.0296,-2.0296,-2.0296,-2.0248,-2.0246,-2.0244,-2.0243,-2.0236,-2.0237,-2.0239,-2.0283,0,0,-2.0243,-2.0244,0,0,0,0,0,0,0,0,-2.0278,-2.0279,-2.0281,-2.0279,-2.0277,-2.0271,-2.0283,-2.0292,-2.0248,-2.0258,-2.0244,-2.0242,-2.0249,-2.025,-2.0252,-2.0283,-2.0282,-2.0243,-2.0244,-2.0244,-2.0245,0,0,0,0,0,0,0,-2.0278,-2.0279,-2.03,-2.0282,-2.0279,-2.0267,-2.0265,-2.0284,-2.0264,-2.0257,-2.0254,-2.0254,-2.0248,-2.0251,-2.0252,-2.0282,-2.0243,-2.0244,-2.0245,-2.0246,-2.0349,-2.0351,0,0,0,0,0,0,-2.0281,-2.0279,-2.03,-2.03,-2.0273,-2.0269,-2.0267,-2.0275,-2.0264,-2.026,-2.0255,-2.0251,-2.025,-2.025,-2.0251,-2.0303,-2.0244,-2.0246,-2.0247,-2.0348,-2.035,-2.0352,0,0,0,0,0,0,-2.028,-2.0283,-2.0301,-2.0289,-2.029,-2.0271,-2.028,-2.0275,-2.0279,-2.0262,-2.0258,-2.0262,-2.0248,-2.0249,-2.0276,-2.0302,-2.0246,-2.0248,-2.0345,-2.0348,-2.0351,-2.0407,0,0,0,0,0,0,-2.028,-2.0283,-2.03,-2.0289,-2.0291,-2.0325,-2.0281,-2.0277,-2.0281,-2.0276,-2.0268,-2.0265,-2.0247,-2.0274,-2.0277,-2.0303,-2.0249,-2.0343,-2.0347,-2.035,-2.0403,-2.0412,-2.0419,0,0,0,0,0,-2.0279,-2.0316,-2.0301,-2.0304,-2.0311,-2.0327,-2.0328,-2.0307,-2.0283,-2.03,-2.029,-2.0265,-2.0299,-2.0277,-2.028,-2.0307,-2.0341,-2.0346,-2.035,-2.04,-2.041,-2.0419,0,0,0,0,0,0,-2.033,-2.0314,-2.0298,-2.0332,-2.0332,-2.0319,-2.0339,-2.0319,-2.0324,-2.032,-2.0293,-2.0291,-2.0322,-2.0317,-2.0293,-2.035,-2.0316,-2.0321,-2.0352,-2.0362,-2.037,-2.0372,-2.025,0,0,0,0,0,-2.0345,-2.036,-2.0345,-2.0377,-2.0377,-2.0359,-2.0364,-2.0348,-2.0346,-2.0346,-2.0337,-2.0336,-2.0346,-2.0354,-2.0362,-2.0402,-2.04,-2.0422,-2.043,-2.0437,-2.0442,-2.0463,-2.0473,-2.0366,-2.0366,-2.0366,0,0,-2.0377,-2.037,-2.0381,-2.0387,-2.0384,-2.04,-2.0359,-2.0376,-2.0388,-2.0348,-2.0373,-2.0367,-2.0364,-2.0397,-2.0411,-2.0394,-2.0471,-2.0442,-2.0448,-2.0449,-2.0469,-2.0479,-2.0488,-2.0369,-2.0369,-2.0368,0,0,-2.0443,-2.0439,-2.0466,-2.0464,-2.0461,-2.0448,-2.0455,-2.0445,-2.044,-2.0464,-2.0435,-2.0448,-2.0466,-2.0466,-2.0468,-2.0534,-2.0512,-2.0538,-2.0581,-2.0602,-2.061,-2.0618,-2.0643,-2.0652,-2.0542,-2.0543,-2.0543,0,-2.0483,-2.0506,-2.0482,-2.0502,-2.0506,-2.0471,-2.0499,-2.0498,-2.0498,-2.0501,-2.0481,-2.0504,-2.05,-2.0533,-2.0549,-2.0552,-2.0559,-2.0539,-2.0611,-2.0618,-2.0625,-2.0648,-2.0657,-2.0546,-2.0545,-2.0545,-2.0545,0,-2.0555,-2.0571,-2.0593,-2.0595,-2.0601,-2.0624,-2.0605,-2.0613,-2.0597,-2.0586,-2.0612,-2.0605,-2.0612,-2.0619,-2.0602,-2.065,-2.0639,-2.0616,-2.0581,-2.0639,-2.066,-2.0669,-2.0551,-2.0549,-2.0548,-2.0548,0,0,-2.0654,-2.0642,-2.0651,-2.0652,-2.0646,-2.0657,-2.0679,-2.0687,-2.0695,-2.0696,-2.0714,-2.0731,-2.0709,-2.0712,-2.0695,-2.0713,-2.0768,-2.0687,-2.0687,-2.0704,-2.0821,-2.084,-2.0851,-2.0752,-2.0754,-2.0755,-2.0822,0,-2.0719,-2.0756,-2.0736,-2.0776,-2.0791,-2.0758,-2.0778,-2.0776,-2.0767,-2.0778,-2.0767,-2.078,-2.075,-2.0751,-2.0768,-2.0758,-2.0791,-2.0752,-2.077,-2.0771,-2.0773,-2.0862,-2.0882,-2.0945,-2.083,-2.0831,-2.0832,0,-2.0799,-2.0804,-2.0847,-2.0839,-2.0844,-2.0862,-2.0867,-2.0878,-2.0876,-2.0868,-2.0871,-2.085,-2.0871,-2.0836,-2.0865,-2.0839,-2.0845,-2.0841,-2.0843,-2.0845,-2.0806,-2.0868,-2.0964,-2.0975,-2.0845,-2.0844,-2.0843,0,-2.0869,-2.0886,-2.0914,-2.0915,-2.0906,-2.0919,-2.0916,-2.0912,-2.0918,-2.0922,-2.0926,-2.0933,-2.0937,-2.0943,-2.0924,-2.09,-2.0956,-2.0919,-2.0951,-2.0952,-2.0965,-2.0965,-2.1066,-2.0967,-2.0967,-2.0966,-2.0966,0,-2.0944,-2.0971,-2.0945,-2.0962,-2.0992,-2.0968,-2.0998,-2.0991,-2.0988,-2.1004,-2.0975,-2.099,-2.0964,-2.0976,-2.0961,-2.0989,-2.099,-2.0985,-2.0981,-2.0988,-2.0989,-2.0993,-2.0988,-2.0969,-2.0968,-2.0968,-2.0967,0,-2.1027,-2.1011,-2.1039,-2.1028,-2.1026,-2.1049,-2.1039,-2.1055,-2.1043,-2.1063,-2.1067,-2.1049,-2.1062,-2.1044,-2.1055,-2.1045,-2.1083,-2.1071,-2.1084,-2.1081,-2.1115,-2.1112,-2.1223,-2.1237,-2.1127,-2.1128,-2.1129,0,-2.1077,-2.1098,-2.1089,-2.1098,-2.1097,-2.111,-2.1116,-2.1093,-2.1101,-2.11,-2.1116,-2.1127,-2.1134,-2.1157,-2.1145,-2.1154,-2.1143,-2.1181,-2.1144,-2.1152,-2.1146,-2.1145,-2.1148,-2.1189,-2.1191,-2.1192,-2.1193,0,-2.1168,-2.1159,-2.1169,-2.1176,-2.1185,-2.1189,-2.1192,-2.12,-2.1176,-2.1186,-2.1199,-2.1205,-2.1217,-2.1229,-2.1234,-2.123,-2.1208,-2.1204,-2.1212,-2.1221,-2.1228,-2.1226,-2.1106,-2.1202,-2.1201,-2.12,-2.12,-2.12,-2.1237,-2.1254,-2.1251,-2.1263,-2.1263,-2.1266,-2.1281,-2.1271,-2.1282,-2.129,-2.1276,-2.1293,-2.129,-2.1296,-2.1295,-2.1308,-2.1292,-2.1303,-2.1306,-2.131,-2.1316,-2.1225,-2.1309,-2.1308,-2.1308,-2.1308,-2.1308,0,-2.1327,-2.1324,-2.1335,-2.134,-2.135,-2.1328,-2.1329,-2.1339,-2.1355,-2.1355,-2.1363,-2.1379,-2.139,-2.1379,-2.1388,-2.1401,-2.1391,-2.1404,-2.1404,-2.1404,-2.1329,-2.1322,-2.1412,-2.1412,-2.1412,-2.1412,-2.1412,-2.1412,-2.1375,-2.1404,-2.1394,-2.1422,-2.1418,-2.1436,-2.1439,-2.1441,-2.1441,-2.146,-2.147,-2.1462,-2.1458,-2.1466,-2.1476,-2.1472,-2.1478,-2.1495,-2.1488,-2.1419,-2.1409,-2.1399,-2.1392,-2.1496,-2.1496,-2.1562,-2.1562,-2.1563]}]]